Hlavní strana
METAR-TAF:

METAR-TAF

Letiště :

Shelbyville, Tennessee, Spojené státy americké

zeměpisná šířka: 35-33-34N, zeměpisná délka: 086-26-33W, výška: 244 m

Aktuální stav počasí

Zpráva byla vytvořena před 29 minutami, v 00:15 UTC
Jižní vítr 8 kt
Teplota 7°C
Vlhkost vzduchu 81%
Tlak 1016 hPa
Viditelnost: 16.1 km
Polojasno ve výšce 3700 ft
Zataženo ve výšce 4700 ft

METAR: KSYI 270015Z AUTO 17008KT 10SM SCT037 OVC047 07/04 A2999 RMK A01

Čas: 18:44 (00:44 UTC)


TAF: chybějící

Stav a předpovědi počasí z více než 4 000 letišť (zprávy METAR a TAF).

Červené a žluté tečky na mapě představují dostupné meteorologické stanice.

Když kurzor umístíte na tečku, zobrazí se název stanice.

Pak kliknutím zobrazíte stav a předpověď počasí.

Chcete-li změnit mapu, kliknutím na zelené tlačítko se znaménkem +mapu přiblížíte, kliknutím na zelené tlačítko se znaménkem – mapu oddálíte a kliknutím na zelené šipky přejdete na sousední mapy.


METAR-TAF: